{"data":{"norad_id":68010,"epoch":"2026-05-24T17:20:03.473088Z","epoch_age_seconds":98449,"freshness":"FRESH","line1":"1 68010U 26039AA  26144.72226242  .00012691  00000+0  46973-3 0  9999","line2":"2 68010  43.0020 339.3459 0001088 271.6903  88.3824 15.27592047 13332","mean_motion":15.27592047,"eccentricity":0.0001088,"inclination_deg":43.002,"raan_deg":339.3459,"arg_perigee_deg":271.6903,"mean_anomaly_deg":88.3824,"bstar":0.00046973,"rev_number":1333,"period_min":94.266005300825,"perigee_km":482.26653010231,"apogee_km":483.75951634736,"semimajor_km":6861.1500232248,"source":"CELESTRAK","updated_at":"2026-05-25T13:38:21.802889Z"}}